[{"OBJECT_NAME":"GSAT0223 (GALILEO 27)","OBJECT_ID":"2021-116A","EPOCH":"2026-09-08T09:15:31.398048","MEAN_MOTION":1.70476049,"ECCENTRICITY":0.00039553,"INCLINATION":57.127,"RA_OF_ASC_NODE":339.4281,"ARG_OF_PERICENTER":220.3982,"MEAN_ANOMALY":200.3753,"EPHEMERIS_TYPE":0,"CLASSIFICATION_TYPE":"U","NORAD_CAT_ID":49809,"ELEMENT_SET_NO":999,"REV_AT_EPOCH":2960,"BSTAR":0,"MEAN_MOTION_DOT":-9.9e-7,"MEAN_MOTION_DDOT":0},{"OBJECT_NAME":"GSAT0224 (GALILEO 28)","OBJECT_ID":"2021-116B","EPOCH":"2026-09-12T04:57:18.257184","MEAN_MOTION":1.7047635,"ECCENTRICITY":0.0003182,"INCLINATION":57.1262,"RA_OF_ASC_NODE":339.3236,"ARG_OF_PERICENTER":214.6681,"MEAN_ANOMALY":143.5941,"EPHEMERIS_TYPE":0,"CLASSIFICATION_TYPE":"U","NORAD_CAT_ID":49810,"ELEMENT_SET_NO":999,"REV_AT_EPOCH":2968,"BSTAR":0,"MEAN_MOTION_DOT":-0.00000103,"MEAN_MOTION_DDOT":0},{"OBJECT_NAME":"GSAT0225 (GALILEO 29)","OBJECT_ID":"2024-079A","EPOCH":"2026-09-11T22:18:26.505216","MEAN_MOTION":1.70474149,"ECCENTRICITY":0.00013459,"INCLINATION":55.1754,"RA_OF_ASC_NODE":98.6543,"ARG_OF_PERICENTER":119.7816,"MEAN_ANOMALY":61.6279,"EPHEMERIS_TYPE":0,"CLASSIFICATION_TYPE":"U","NORAD_CAT_ID":59598,"ELEMENT_SET_NO":999,"REV_AT_EPOCH":1479,"BSTAR":0,"MEAN_MOTION_DOT":1.2e-7,"MEAN_MOTION_DDOT":0},{"OBJECT_NAME":"GSAT0227 (GALILEO 30)","OBJECT_ID":"2024-079C","EPOCH":"2026-09-11T05:32:31.864704","MEAN_MOTION":1.70474135,"ECCENTRICITY":0.00041437,"INCLINATION":55.1701,"RA_OF_ASC_NODE":98.6721,"ARG_OF_PERICENTER":92.2332,"MEAN_ANOMALY":267.9075,"EPHEMERIS_TYPE":0,"CLASSIFICATION_TYPE":"U","NORAD_CAT_ID":59600,"ELEMENT_SET_NO":999,"REV_AT_EPOCH":1483,"BSTAR":0,"MEAN_MOTION_DOT":1.5e-7,"MEAN_MOTION_DDOT":0},{"OBJECT_NAME":"GSAT0232 (GALILEO 32)","OBJECT_ID":"2024-167A","EPOCH":"2026-09-12T01:13:47.191296","MEAN_MOTION":1.70473627,"ECCENTRICITY":0.00056213,"INCLINATION":55.1656,"RA_OF_ASC_NODE":218.9315,"ARG_OF_PERICENTER":235.9553,"MEAN_ANOMALY":123.2359,"EPHEMERIS_TYPE":0,"CLASSIFICATION_TYPE":"U","NORAD_CAT_ID":61182,"ELEMENT_SET_NO":999,"REV_AT_EPOCH":1235,"BSTAR":0,"MEAN_MOTION_DOT":1e-8,"MEAN_MOTION_DDOT":0},{"OBJECT_NAME":"GSAT0226 (GALILEO 31)","OBJECT_ID":"2024-167B","EPOCH":"2026-09-11T07:40:24.494880","MEAN_MOTION":1.70473586,"ECCENTRICITY":0.00025111,"INCLINATION":55.1647,"RA_OF_ASC_NODE":218.9588,"ARG_OF_PERICENTER":247.1445,"MEAN_ANOMALY":114.4318,"EPHEMERIS_TYPE":0,"CLASSIFICATION_TYPE":"U","NORAD_CAT_ID":61183,"ELEMENT_SET_NO":999,"REV_AT_EPOCH":1232,"BSTAR":0,"MEAN_MOTION_DOT":-2e-8,"MEAN_MOTION_DDOT":0},{"OBJECT_NAME":"GSAT0233 (GALILEO 33)","OBJECT_ID":"2025-302A","EPOCH":"2026-09-11T03:57:18.785664","MEAN_MOTION":1.7047411,"ECCENTRICITY":0.00028117,"INCLINATION":54.3907,"RA_OF_ASC_NODE":99.6797,"ARG_OF_PERICENTER":137.882,"MEAN_ANOMALY":225.2404,"EPHEMERIS_TYPE":0,"CLASSIFICATION_TYPE":"U","NORAD_CAT_ID":67160,"ELEMENT_SET_NO":999,"REV_AT_EPOCH":459,"BSTAR":0,"MEAN_MOTION_DOT":1.4e-7,"MEAN_MOTION_DDOT":0},{"OBJECT_NAME":"GSAT0234 (GALILEO 34)","OBJECT_ID":"2025-302C","EPOCH":"2026-09-11T03:48:38.909088","MEAN_MOTION":1.7047409,"ECCENTRICITY":0.00005097,"INCLINATION":54.3927,"RA_OF_ASC_NODE":99.679,"ARG_OF_PERICENTER":35.7866,"MEAN_ANOMALY":143.7414,"EPHEMERIS_TYPE":0,"CLASSIFICATION_TYPE":"U","NORAD_CAT_ID":67162,"ELEMENT_SET_NO":999,"REV_AT_EPOCH":464,"BSTAR":0,"MEAN_MOTION_DOT":1.4e-7,"MEAN_MOTION_DDOT":0}]